| time (UTC) | temp F | wind direction | speed MPH | gust MPH | rain 1hr in | rain 24hr in | rain mn in | humidity % | barometer mb |
| 20260504090126 | 53 | 40 | 0.0 | 0.0 | 0.00 | 0.00 | 0.00 | 69 | 1015.3 |
| 20260504080124 | 55 | 324 | 1.0 | 3.0 | 0.00 | 0.00 | 0.00 | 69 | 1015.9 |
| 20260504070122 | 59 | 231 | 0.0 | 4.0 | 0.00 | 0.00 | 0.00 | 55 | 1016.3 |
| 20260504060122 | 62 | 71 | 1.0 | 2.0 | 0.00 | 0.00 | 0.00 | 49 | 1016.4 |
| 20260504050128 | 64 | 100 | 2.0 | 4.0 | 0.00 | 0.00 | 0.00 | 46 | 1016.8 |
| 20260504044625 | 63 | 106 | 2.0 | 2.0 | 0.00 | 0.00 | 0.00 | 46 | 1016.9 |
| 20260504043201 | 63 | 106 | 1.0 | 2.0 | 0.00 | 0.00 | 0.00 | 46 | 1017.0 |
| 20260504041655 | 62 | 102 | 1.0 | 3.0 | 0.00 | 0.00 | 0.00 | 48 | 1017.0 |
| 20260504040134 | 61 | 84 | 0.0 | 3.0 | 0.00 | 0.00 | 0.00 | 49 | 1016.9 |
| 20260504034626 | 63 | 129 | 1.0 | 2.0 | 0.00 | 0.00 | 0.00 | 45 | 1016.9 |
| 20260504033125 | 64 | 136 | 2.0 | 4.0 | 0.00 | 0.00 | 0.00 | 43 | 1016.7 |
| 20260504031640 | 64 | 138 | 1.0 | 3.0 | 0.00 | 0.00 | 0.00 | 44 | 1016.7 |
| 20260504030155 | 64 | 121 | 2.0 | 3.0 | 0.00 | 0.00 | 0.00 | 44 | 1016.9 |
| 20260504024631 | 65 | 132 | 0.0 | 2.0 | 0.00 | 0.00 | 0.00 | 43 | 1017.1 |
| 20260504023124 | 66 | 130 | 0.0 | 0.0 | 0.00 | 0.00 | 0.00 | 42 | 1016.8 |
| 20260504021640 | 67 | 222 | 0.0 | 2.0 | 0.00 | 0.00 | 0.00 | 40 | 1016.7 |
| 20260504020133 | 68 | 117 | 2.0 | 3.0 | 0.00 | 0.00 | 0.00 | 38 | 1016.7 |
| 20260504014645 | 69 | 158 | 2.0 | 4.0 | 0.00 | 0.00 | 0.00 | 37 | 1016.6 |
| 20260504013140 | 71 | 138 | 3.0 | 4.0 | 0.00 | 0.00 | 0.00 | 35 | 1016.5 |
| 20260504011652 | 71 | 168 | 2.0 | 4.0 | 0.00 | 0.00 | 0.00 | 34 | 1016.7 |
| 20260504010148 | 71 | 147 | 2.0 | 5.0 | 0.00 | 0.00 | 0.00 | 34 | 1017.0 |
| 20260504004638 | 71 | 149 | 3.0 | 6.0 | 0.00 | 0.00 | 0.00 | 32 | 1017.0 |
| 20260504003131 | 72 | 157 | 1.0 | 6.0 | 0.00 | 0.00 | 0.00 | 33 | 1017.1 |
| 20260504001647 | 72 | 125 | 3.0 | 5.0 | 0.00 | 0.00 | 0.00 | 32 | 1017.3 |
| 20260504000138 | 72 | 190 | 4.0 | 7.0 | 0.00 | 0.00 | 0.00 | 33 | 1017.3 |
| 20260503234634 | 72 | 170 | 4.0 | 8.0 | 0.00 | 0.00 | 0.00 | 33 | 1017.4 |
| 20260503233127 | 71 | 170 | 3.0 | 9.0 | 0.00 | 0.00 | 0.00 | 33 | 1017.5 |
| 20260503231624 | 72 | 179 | 4.0 | 8.0 | 0.00 | 0.00 | 0.00 | 33 | 1017.6 |
| 20260503230135 | 72 | 191 | 6.0 | 9.0 | 0.00 | 0.00 | 0.00 | 33 | 1017.8 |
| 20260503224626 | 73 | 194 | 5.0 | 8.0 | 0.00 | 0.00 | 0.00 | 32 | 1018.0 |
| 20260503223144 | 73 | 227 | 5.0 | 9.0 | 0.00 | 0.00 | 0.00 | 32 | 1018.2 |
| 20260503221634 | 72 | 202 | 5.0 | 6.0 | 0.00 | 0.00 | 0.00 | 33 | 1018.7 |
| 20260503220128 | 73 | 225 | 2.0 | 7.0 | 0.00 | 0.00 | 0.00 | 33 | 1018.8 |
| 20260503214700 | 72 | 93 | 2.0 | 7.0 | 0.00 | 0.00 | 0.00 | 34 | 1019.0 |
| 20260503213132 | 71 | 211 | 1.0 | 6.0 | 0.00 | 0.00 | 0.00 | 34 | 1019.4 |
| 20260503211649 | 72 | 107 | 1.0 | 6.0 | 0.00 | 0.00 | 0.00 | 34 | 1019.6 |
| 20260503210121 | 71 | 128 | 4.0 | 7.0 | 0.00 | 0.00 | 0.00 | 36 | 1020.1 |
| 20260503204638 | 72 | 162 | 5.0 | 8.0 | 0.00 | 0.00 | 0.00 | 34 | 1020.4 |
| 20260503203130 | 71 | 210 | 4.0 | 9.0 | 0.00 | 0.00 | 0.00 | 36 | 1020.8 |
| 20260503201626 | 71 | 113 | 2.0 | 6.0 | 0.00 | 0.00 | 0.00 | 36 | 1021.0 |
| 20260503200159 | 71 | 128 | 4.0 | 7.0 | 0.00 | 0.00 | 0.00 | 36 | 1021.2 |
| 20260503194630 | 71 | 136 | 5.0 | 10.0 | 0.00 | 0.00 | 0.00 | 35 | 1021.4 |
| 20260503193126 | 71 | 246 | 3.0 | 7.0 | 0.00 | 0.00 | 0.00 | 35 | 1021.6 |
| 20260503191638 | 70 | 235 | 0.0 | 8.0 | 0.00 | 0.00 | 0.00 | 37 | 1021.6 |
| 20260503190134 | 69 | 150 | 2.0 | 8.0 | 0.00 | 0.00 | 0.00 | 40 | 1021.8 |
| 20260503183122 | 67 | 256 | 3.0 | 7.0 | 0.00 | 0.00 | 0.00 | 43 | 1022.5 |
| 20260503181633 | 66 | 256 | 3.0 | 8.0 | 0.00 | 0.00 | 0.00 | 43 | 1022.7 |
| 20260503180124 | 65 | 239 | 2.0 | 7.0 | 0.00 | 0.00 | 0.00 | 45 | 1022.8 |
| 20260503174639 | 65 | 221 | 3.0 | 6.0 | 0.00 | 0.00 | 0.00 | 44 | 1023.1 |
| 20260503173130 | 65 | 277 | 1.0 | 5.0 | 0.00 | 0.00 | 0.00 | 45 | 1023.3 |
| 20260503171626 | 65 | 260 | 2.0 | 6.0 | 0.00 | 0.00 | 0.00 | 46 | 1023.3 |
| 20260503170138 | 63 | 21 | 0.0 | 5.0 | 0.00 | 0.00 | 0.00 | 47 | 1023.3 |
| 20260503160134 | 59 | 20 | 2.0 | 4.0 | 0.00 | 0.00 | 0.00 | 56 | 1023.9 |
| 20260503150129 | 57 | 310 | 1.0 | 4.0 | 0.00 | 0.00 | 0.00 | 59 | 1024.1 |
| 20260503140140 | 51 | 6 | 0.0 | 0.0 | 0.00 | 0.00 | 0.00 | 69 | 1023.9 |
| 20260503130137 | 44 | 360 | 0.0 | 0.0 | 0.00 | 0.00 | 0.00 | 75 | 1023.6 |
| 20260503120155 | 45 | 91 | 0.0 | 0.0 | 0.00 | 0.00 | 0.00 | 75 | 1022.8 |
| 20260503110128 | 45 | 68 | 0.0 | 1.0 | 0.00 | 0.00 | 0.00 | 74 | 1023.1 |
| 20260503100124 | 45 | 313 | 0.0 | 0.0 | 0.00 | 0.00 | 0.00 | 75 | 1023.1 |